Regional Weather Roundup
Issued by NWS

Home | Current Version | Previous Version | Graphics & Text | Print | Product List | Glossary Off
Versions: 1 2 3 4 5 6 7 8 9 10 11 12 13 14 15 16 17 18 19 20 21 22 23 24 25 26 27 28 29 30 31 32 33 34 35 36 37 38 39 40 41 42 43 44 45 46 47 48 49 50

000
ASUS43 KMKX 281711
RWRWI

WISCONSIN REGIONAL WEATHER ROUNDUP
NATIONAL WEATHER SERVICE MILWAUKEE/SULLIVAN WI
1200 PM CDT THU APR 28 2016

NOTE: "FAIR" INDICATES FEW OR NO CLOUDS BELOW 12,000 FEET WITH NO
SIGNIFICANT WEATHER AND/OR OBSTRUCTIONS TO VISIBILITY.

WIZ001-002-006>008-014>016-023>028-281800-
NORTHWEST WISCONSIN

CITY           SKY/WX    TMP DP  RH WIND       PRES   REMARKS
SUPERIOR ARPT  CLOUDY    41  33  72 NE21G30   30.10S
ASHLAND        CLOUDY    44  32  62 NE14      30.10R
HAYWARD        CLOUDY    52  22  30 NE12G17   30.02S
SIREN          CLOUDY    50  20  30 E8        30.02S
CUMBERLAND     CLOUDY    45  23  42 E5        30.01S
RICE LAKE      CLOUDY    47  22  36 E10       30.02S
CHETEK         CLOUDY    47  25  41 E6        30.01S
LADYSMITH      CLOUDY    49  21  33 E8        30.03S
EAU CLAIRE     LGT RAIN  39  35  86 NE12      30.00S WCI  32
MENOMONIE      LGT RAIN  39  39  99 NE8       30.01S WCI  33
NEW RICHMOND   CLOUDY    39  34  82 E13G21    30.01R WCI  32
OSCEOLA        LGT RAIN  40  35  83 NE9       30.04S WCI  34
$$

WIZ003>005-009-010-017-018-281800-
NORTH CENTRAL WISCONSIN

CITY           SKY/WX    TMP DP  RH WIND       PRES   REMARKS
MANITOWISH WTR CLOUDY    44  20  39 SE5       30.04S
ARBOR VITAE    CLOUDY    44  19  36 E5        30.04R
WOODRUFF       CLOUDY    44  19  36 E5        30.04R
RHINELANDER    CLOUDY    47  20  34 E9        30.04R
EAGLE RIVER    CLOUDY    48  14  25 E9G18     30.03S
LAND O LAKES   MOSUNNY   48  17  29 E8        30.05R
PHILLIPS       CLOUDY    46  22  38 NE9       30.02S
TOMAHAWK       CLOUDY    47  19  32 E6        30.03R
MEDFORD        CLOUDY    45  22  40 E8        30.00R
MERRILL        CLOUDY    46  21  37 E12G18    30.02R
$$

WIZ029-030-035-036-043>047-281800-
CENTRAL WISCONSIN

CITY           SKY/WX    TMP DP  RH WIND       PRES   REMARKS
WAUSAU         CLOUDY    46  22  38 SE15      30.00R
MOSINEE        CLOUDY    37  30  75 E7        30.02R WCI  32
MARSHFIELD     LGT RAIN  40  34  79 E12       29.99S WCI  33
STEVENS POINT  LGT RAIN  39  32  76 E16G22    30.02R WCI  30
WAUPACA        LGT RAIN  41  35  79 E8        30.03R
WAUTOMA        NOT AVBL
WISC RAPIDS    LGT RAIN  40  37  89 E14       30.01S WCI  32
CAMP DOUGLAS   LGT RAIN  39  39 100 NE10      29.96R WCI  32
$$

WIZ011>013-019>022-031-037>040-048>050-281800-
NORTHEAST WISCONSIN

CITY           SKY/WX    TMP DP  RH WIND       PRES   REMARKS
ANTIGO         CLOUDY    44  24  45 E10       30.03R
SHAWANO        MOSUNNY   47  25  41 SE14G20   30.05R
OCONTO         CLOUDY    46  28  49 NE9G18    30.05R
STURGEON BAY   CLOUDY    45  28  53 E8        30.07S
GREEN BAY      LGT RAIN  42  30  62 E8        30.05R
MANITOWOC      CLOUDY    42  32  67 VRB6G16   30.04R
APPLETON       FRZ DRZL  37  30  75 E7        30.01R WCI  32
CLINTONVILLE   RAIN      41  32  70 E7        30.05R
OSHKOSH        CLOUDY    41  33  73 E13       30.01R
$$

WIZ032>034-041-042-053>061-281800-
SOUTHWEST WISCONSIN

CITY           SKY/WX    TMP DP  RH WIND       PRES   REMARKS
LA CROSSE      CLOUDY    45  34  65 E8        29.94R
SPARTA         LGT RAIN  41  36  83 E10       29.96R
VIROQUA        CLOUDY    41  36  83 E15       29.92R
BOSCOBEL       CLOUDY    46  39  76 E7        29.92R
PRAIRIE DU CHI CLOUDY    46  39  76 E9        29.90R
PLATTEVILLE    CLOUDY    44  42  91 E17       29.88S
$$

WIZ056-057-062-063-064-067-068-281800-
SOUTH CENTRAL WISCONSIN

CITY           SKY/WX    TMP DP  RH WIND       PRES   REMARKS
REEDSBURG      DRIZZLE   40  38  95 E14G21    29.94R WCI  32
BARABOO/DELLS  LGT RAIN  39  37  92 E13G18    29.94R WCI  32
LONE ROCK      CLOUDY    44  39  82 E13       29.93R
MINERAL POINT  CLOUDY    43  41  93 E13       29.90R
MADISON        CLOUDY    42  38  85 E12       29.93R
MIDDLETON      CLOUDY    42  38  87 E9G17     29.93R
WATERTOWN      CLOUDY    40  37  86 E13G21    29.94S WCI  33
MONROE         CLOUDY    43  39  87 E10       29.90R
JANESVILLE     CLOUDY    46  37  71 E13       29.90S
$$

WIZ051-052-058>065-066-070>072-281800-
SOUTHEAST WISCONSIN

CITY           SKY/WX    TMP DP  RH WIND       PRES   REMARKS
MILWAUKEE      CLOUDY    40  36  86 E18       29.96R WCI  31
WAUKESHA       CLOUDY    39  34  81 E12G21    29.96R WCI  32
MILWAUKEE/TIMM CLOUDY    39  34  81 MISG      29.98R HAZE
RACINE         CLOUDY    41  35  79 E12       29.97R
BURLINGTON     CLOUDY    42  35  76 E13       29.92F
KENOSHA        CLOUDY    42  36  79 E21       29.93F
FOND DU LAC    LGT RAIN  42  33  70 E10       30.00R
SHEBOYGAN      CLOUDY    42  31  64 E14       30.01R
WEST BEND      LGT RAIN  37  36  93 E13       29.98S WCI  29
JUNEAU         LGT RAIN  38  36  91 E16       29.97S WCI  29
$$

LSZ147-162-281800-
LAKE SUPERIOR

STATION/POSITION TIME  TEMP    WIND        PRES    WAVE
                       AIR SEA DIR/SP/G            HT/PER
                 (UTC) (F)     (DEG/KT/KT) (MB)    (FT/S)
W MID LAKE BUOY  1650   37 36   50/ 19/ 23 1020.9R   3/ 4
DEVILS ISLAND    1700   37      60/ 24/ 27 1020.9R
SAXON HARBOR     1600   39      40/ 11/ 13 1017.9R
$$

LMZ867-665-643>646-281800-
LAKE MICHIGAN

STATION/POSITION TIME  TEMP    WIND        PRES    WAVE
                       AIR SEA DIR/SP/G            HT/PER
                 (UTC) (F)     (DEG/KT/KT) (MB)    (FT/S)
CHAMBERS ISLAND  1600   42      50/ 11/ 16 1018.3R
N MID LAKE BUOY  1650   39 38   70/ 12/ 16 1018.5R   2/ 4
NORTHPORT PIER   1600   40      60/ 15/ 17 1018.3R
ALGOMA LAKESHORE 1615           60/ 15/ 18   N/A
KEWAUNEE LAKESHO 1600   40      30/ 11/ 13 1016.2R
SHEBOYGAN LAKESH 1700   40      70/ 10/ 11 1017.3R
PORT WASHINGTON  1600   39      80/ 15/ 21 1015.9S
S MID LAKE BUOY  1650   39 40   80/ 16/ 19 1013.7S   4/ 5
KENOSHA   LAKESH 1700   40      60/ 15/ 18 1013.9S
$$

TC  - TEMPERATURE IN CELSIUS
VSB - VISIBILITY IN STATUTE MILES
WCI - WIND CHILL INDEX
HX  - HEAT INDEX





USA.gov is the U.S. government's official web portal to all federal, state and local government web resources and services.